Location: Devore Heights
(34.2372°N, 117.4156°W)
Time: 06:37:17
(UTC+00:00)

Courier 1B Rocket - Visible Passes

Search period start: 19 September 2024 00:00
Search period end: 29 September 2024 00:00
Orbit: 920 x 1201 km, 28.2° (Epoch: 18 September)

Date Brightness Start Highest point End Pass type
(mag) Time Alt. Az. Time Alt. Az. Time Alt. Az.
19 Sep 6.9 03:38:25 10° WSW 03:43:46 22° SSW 03:47:02 17° S visible
20 Sep 6.6 02:36:50 10° WSW 02:42:39 29° SSW 02:48:47 10° SE visible
20 Sep 7.5 04:34:23 10° SW 04:35:34 10° SSW 04:36:08 10° SSW visible
21 Sep 7.3 03:30:34 10° WSW 03:34:29 15° SSW 03:38:32 10° S visible
22 Sep 7.0 02:28:30 10° WSW 02:33:25 21° SSW 02:38:35 10° SSE visible
24 Sep 7.4 02:20:50 10° WSW 02:24:11 14° SSW 02:27:37 10° S visible
